Regional Weather Roundup
Issued by NWS

Home | Current Version | Previous Version | Graphics & Text | Print | Product List | Glossary On
Versions: 1 2 3 4 5 6 7 8 9 10 11 12 13 14 15 16 17 18 19 20 21 22 23 24 25 26 27 28 29 30 31 32 33 34 35 36 37 38 39 40 41 42 43 44 45 46 47 48 49 50
196
ASUS45 KBOU 050707
RWRCO

WEATHER ROUNDUP FOR COLORADO
NATIONAL WEATHER SERVICE DENVER/BOULDER CO
1200 AM MST MON DEC 05 2016

NOTE: "FAIR" INDICATES FEW OR NO CLOUDS BELOW 12000 FEET WITH NO
SIGNIFICANT WEATHER AND/OR OBSTRUCTIONS TO VISIBILITY.

COZ001>005-013-030-031-050800-
...NORTHWEST COLORADO...

CITY           SKY/WX    TMP DP  RH WIND       PRES   REMARKS
CRAIG          MOCLDY    28  17  63 CALM      29.79F
HAYDEN         CLOUDY    27  14  59 SE6       29.79F WCI  20
MEEKER         CLOUDY    37  17  44 SW14G23   29.80F
MOUNT WERNER   NOT AVBL
STEAMBOAT SPGS CLOUDY    23  18  82 CALM      29.80F
WALDEN           N/A     30  18  59 SW21      29.76F WCI  17
$$

COZ006>008-011-050800-
...WEST CENTRAL VALLEYS...

CITY           SKY/WX    TMP DP  RH WIND       PRES   REMARKS
GRAND JUNCTION FAIR      25  18  74 NW5       29.93F WCI  19
MONTROSE       FAIR      25  17  72 SE5       29.94F WCI  19
EAGLE          CLOUDY    27  18  69 N3        29.90F
RIFLE          CLOUDY    30  19  63 CALM      29.92F
DELTA          FAIR      30  19  63 N6        29.95  WCI  24
NUCLA          FAIR      27  14  59 E8        30.00F WCI  18
$$

COZ017>023-064>068-050800-
...SOUTHWEST COLORADO...

CITY           SKY/WX    TMP DP  RH WIND       PRES   REMARKS
DURANGO        FAIR      21  16  81 NE5       30.03F WCI  15
CORTEZ         FAIR      20  16  84 NE8       30.01F WCI  10
PAGOSA SPRINGS FAIR      18  17  96 CALM      30.04F
TELLURIDE      NOT AVBL
WOLF CREEK PAS FAIR      14   9  79 S16       30.06F WCI  -2
$$

COZ009-010-012-014-032>034-037-058>063-050800-
...CENTRAL COLORADO...

CITY           SKY/WX    TMP DP  RH WIND       PRES   REMARKS
ASPEN          CLOUDY    28  20  71 VRB3      29.85F
BUENA VISTA    CLOUDY    39  13  34 NW13G25   29.87F
COPPER MTN     FAIR      27  14  59 MISG      29.91F
BERTHOUD PASS  MOCLDY    18   5  57 W23G47    29.86F WCI   0
COTTONWOOD PAS FAIR      34  12  40 W36G52    29.85F WCI  19
GUNNISON       FAIR       9   6  88 CALM      30.00F
KREMMLING      MOCLDY    41  19  42 SW15G24   29.82F
LEADVILLE      FAIR      25  12  58 CALM      29.88F
MONARCH PASS   FAIR      19  12  73 W35G44    30.05F WCI  -1
SALIDA         FAIR      38  11  32 SW17G26   29.93F
SUNLIGHT       CLOUDY    21  16  79 SW21G33   29.93F WCI   6
WILKERSON PASS FAIR      27  12  54 W22G37    29.86F WCI  12
$$

COZ069>075-050800-
...SAN LUIS VALLEY/SANGRE DE CRISTO MOUNTAINS...

CITY           SKY/WX    TMP DP  RH WIND       PRES   REMARKS
ALAMOSA        FAIR       4   1  88 N5        29.98F WCI  -5
LA VETA PASS   FAIR      25  12  58 NE28G39   29.88F WCI   8
SAGUACHE       FAIR      14   3  62 N7        29.98F WCI   4
$$

COZ035-036-038>040-050800-
...NORTHERN COLORADO FRONT RANGE...

CITY           SKY/WX    TMP DP  RH WIND       PRES   REMARKS
DENVER INTL AP FAIR      34  14  43 S15       29.68F WCI  24
DMNS CITY PARK   N/A     34  13  42 SE7G15    29.67F WCI  28
AURORA         MOCLDY    35  15  44 S13       29.68F WCI  26
FRONT RANGE AP FAIR      36  18  48 S8        29.69F
ERIE MUNI ARPT FAIR      47  14  26 S7        29.67F
BOULDER MUN AP FAIR      50  19  29 SE6       29.64F
CENTENNIAL     FAIR      34  15  46 SE6       29.68F WCI  29
BROOMFIELD     FAIR      41  12  30 E5        29.69S
FORT COLLINS   FAIR      45  18  33 S5G20     29.66F
LONGMONT       FAIR      39  16  38 NE6       29.68S
$$

COZ041-046-047-076>085-087-088-050800-
...PIKES PEAK/PALMER DIVIDE AND SOUTHERN FOOTHILLS...

CITY           SKY/WX    TMP DP  RH WIND       PRES   REMARKS
COLO. SPRINGS  MOCLDY    33  10  38 E9        29.75F WCI  25
A. F. ACADEMY  FAIR      25  11  54 N5        29.74F WCI  19
SCHRIEVER AFB  NOT AVBL
ELLICOTT       FAIR       1  32 100 CALM      29.75F
FALCON         FAIR      44  13  29 W22G29    29.76F
FORT CARSON    FAIR      30  11  44 NW10      29.74F WCI  21
LIMON          FAIR      16  10  77 NW6       29.72F WCI   7
MONUMENT HILL  FAIR      36  14  41 SW9       29.75F
TRINIDAD       FAIR      37  13  37 SW18      29.80F
$$

COZ042>045-048>051-090-091-050800-
...NORTHEAST COLORADO...

CITY           SKY/WX    TMP DP  RH WIND       PRES   REMARKS
GREELEY ARPT   FAIR      25  15  66 S7        29.67F WCI  17
AKRON          FAIR      40  13  33 SW16      29.68F
BURLINGTON     FAIR      30  14  51 S14       29.69F WCI  19
WRAY           FAIR      32  16  51 MISG      29.69F
STERLING       FAIR      28  14  54 SW5       29.68F WCI  23
HOLYOKE        FAIR      36  18  48 SW8       29.68F
FORT MORGAN    FAIR      29  12  47 W9        29.69F WCI  21
$$

COZ086-089-092>099-050800-
...SOUTHEAST COLORADO...

CITY           SKY/WX    TMP DP  RH WIND       PRES   REMARKS
PUEBLO         FAIR      24  12  60 W8        29.75F WCI  15
LA JUNTA       FAIR      30  15  53 SW7       29.75F WCI  23
LAMAR          MIX PCPN  18  11  74 SW3       29.74F
SPRINGFIELD      N/A     27  17  66 CALM      29.79F
$$




USA.gov is the U.S. government's official web portal to all federal, state and local government web resources and services.